Siemreap, Cambodia

8:36 PM ICT on February 24, 2017 (GMT +0700)
Siem Reap

Weather History for VDSR - September, 2013

Change the Weather History Date:

Thursday, September 12, 2013

  Actual Average Record
Temperature  
Mean Temperature 84 °F -  
Max Temperature 89 °F - - ()
Min Temperature 77 °F - - ()
Cooling Degree Days 18    
Growing Degree Days 34 (Base 50)    
Moisture  
Dew Point 76 °F    
Average Humidity 78    
Maximum Humidity 94    
Minimum Humidity 59    
Precipitation  
Precipitation 0.00 in - - ()
Sea Level Pressure  
Sea Level Pressure 29.74 in    
Wind  
Wind Speed 3 mph ()    
Max Wind Speed 7 mph    
Max Gust Speed -    
Visibility 6.0 miles    
Events Rain , Thunderstorm    
T = Trace of Precipitation, MM = Missing Value Source: Averaged Metar Reports

Daily Weather History Graph

Daily Weather History Graph

Search for Another Location

Airport or City:

Trip Planner

Search our weather history database for the weather conditions in past years. The results will help you decide how hot, cold, wet, or windy it might be!

Date:

Astronomy

Sep. 12, 2013 Rise Set
Actual Time 5:53 AM ICT 6:08 PM ICT
Civil Twilight 5:32 AM ICT 6:29 PM ICT
Nautical Twilight 5:07 AM ICT 6:54 PM ICT
Astronomical Twilight 4:42 AM ICT 7:19 PM ICT
Moon 11:46 AM ICT (9/12) 11:34 PM ICT (9/12)
Length of Visible Light 12h 57m
Length of Day
12h 14m
Waxing Crescent, 44% of the Moon is Illuminated
Sep 12
Waxing Crescent
Sep 13
First Quarter
Sep 19
Full
Sep 27
Last Quarter
Oct 5
New

Hourly Weather History & Observations

Time (ICT) Temp. Heat Index Dew Point Humidity Pressure Visibility Wind Dir Wind Speed Gust Speed Precip Events Conditions
12:00 AM 80.6 °F 86.2 °F 75.2 °F 84% 29.74 in 5.6 mi Calm Calm - N/A   Unknown
12:30 AM 80.6 °F 87.1 °F 77.0 °F 89% 29.74 in 5.6 mi ESE 3.5 mph - N/A   Unknown
1:00 AM 78.8 °F - 77.0 °F 94% 29.74 in 5.6 mi ESE 3.5 mph - N/A   Unknown
7:00 AM - - - %  in - Calm Calm - -  
7:00 AM 78.8 °F - 77.0 °F 94% 29.74 in 6.2 mi East 3.5 mph - N/A   Mostly Cloudy
7:30 AM 80.6 °F 87.1 °F 77.0 °F 89% 29.77 in 6.2 mi East 4.6 mph - N/A   Mostly Cloudy
8:00 AM 80.6 °F 87.1 °F 77.0 °F 89% 29.77 in 6.2 mi ESE 4.6 mph - N/A   Mostly Cloudy
8:30 AM 82.4 °F 90.9 °F 77.0 °F 84% 29.77 in 6.2 mi East 5.8 mph - N/A   Scattered Clouds
9:00 AM 84.2 °F 94.1 °F 77.0 °F 79% 29.77 in 6.2 mi East 4.6 mph - N/A   Scattered Clouds
9:30 AM 84.2 °F 94.1 °F 77.0 °F 79% 29.77 in 6.2 mi Variable 2.3 mph - N/A   Scattered Clouds
10:00 AM 86.0 °F 95.1 °F 75.2 °F 70% 29.77 in 6.2 mi Variable 1.2 mph - N/A   Scattered Clouds
10:30 AM 86.0 °F 95.1 °F 75.2 °F 70% 29.77 in 6.2 mi Variable 3.5 mph - N/A   Scattered Clouds
11:00 AM 87.8 °F 97.6 °F 75.2 °F 66% 29.77 in 6.2 mi South 4.6 mph - N/A   Scattered Clouds
11:30 AM 87.8 °F 97.6 °F 75.2 °F 66% 29.77 in 6.2 mi South 4.6 mph - N/A   Scattered Clouds
12:00 PM 89.6 °F 99.8 °F 75.2 °F 62% 29.74 in 6.2 mi Variable 1.2 mph - N/A   Scattered Clouds
12:30 PM 87.8 °F 95.6 °F 73.4 °F 62% 29.74 in 6.2 mi Variable 2.3 mph - N/A   Partly Cloudy
1:00 PM 89.6 °F 99.8 °F 75.2 °F 62% 29.71 in 6.2 mi Variable 2.3 mph - N/A   Partly Cloudy
1:30 PM 87.8 °F 97.6 °F 75.2 °F 66% 29.68 in 6.2 mi Variable 3.5 mph - N/A   Partly Cloudy
2:00 PM 87.8 °F 97.6 °F 75.2 °F 66% 29.68 in 6.2 mi Variable 3.5 mph - N/A   Partly Cloudy
2:30 PM 87.8 °F 97.6 °F 75.2 °F 66% 29.68 in 6.2 mi East 4.6 mph - N/A   Partly Cloudy
3:00 PM 89.6 °F 98.2 °F 73.4 °F 59% 29.65 in 6.2 mi Variable 3.5 mph - N/A   Partly Cloudy
3:30 PM 89.6 °F 98.2 °F 73.4 °F 59% 29.65 in 6.2 mi East 4.6 mph - N/A   Partly Cloudy
4:00 PM 89.6 °F 98.2 °F 73.4 °F 59% 29.68 in 6.2 mi Variable 3.5 mph - N/A   Partly Cloudy
4:30 PM 89.6 °F 98.2 °F 73.4 °F 59% 29.68 in 6.2 mi South 4.6 mph - N/A   Partly Cloudy
5:00 PM 87.8 °F 97.6 °F 75.2 °F 66% 29.68 in 6.2 mi South 6.9 mph - N/A   Partly Cloudy
5:30 PM 86.0 °F 93.4 °F 73.4 °F 66% 29.68 in 6.2 mi SW 5.8 mph - N/A   Partly Cloudy
6:00 PM 84.2 °F 92.3 °F 75.2 °F 74% 29.71 in 6.2 mi SW 4.6 mph - N/A   Partly Cloudy
6:30 PM 82.4 °F 92.4 °F 78.8 °F 89% 29.74 in 6.2 mi West 6.9 mph - N/A   Partly Cloudy
7:00 PM 82.4 °F 92.4 °F 78.8 °F 89% 29.74 in 6.2 mi West 5.8 mph - N/A   Scattered Clouds
7:30 PM 80.6 °F 87.1 °F 77.0 °F 89% 29.74 in 6.2 mi West 5.8 mph - N/A   Scattered Clouds
8:00 PM 80.6 °F 87.1 °F 77.0 °F 89% 29.77 in 6.2 mi West 2.3 mph - N/A   Scattered Clouds
8:30 PM 80.6 °F 87.1 °F 77.0 °F 89% 29.77 in 6.2 mi WNW 3.5 mph - N/A   Scattered Clouds
9:00 PM 80.6 °F 87.1 °F 77.0 °F 89% 29.80 in 5.6 mi Calm Calm - N/A Rain , Thunderstorm Thunderstorms and Rain
9:30 PM 80.6 °F 88.1 °F 78.8 °F 94% 29.83 in 5.0 mi East 5.8 mph - N/A Rain , Thunderstorm Light Thunderstorms and Rain
10:00 PM 78.8 °F - 75.2 °F 89% 29.83 in 5.0 mi ESE 6.9 mph - N/A Rain , Thunderstorm Light Thunderstorms and Rain
10:30 PM 78.8 °F - 75.2 °F 89% 29.83 in 5.0 mi SE 6.9 mph - N/A Rain , Thunderstorm Light Thunderstorms and Rain
11:00 PM 78.8 °F - 75.2 °F 89% 29.83 in 5.0 mi SE 4.6 mph - N/A Rain , Thunderstorm Light Thunderstorms and Rain
11:30 PM 77.0 °F - 75.2 °F 94% 29.83 in 5.0 mi SE 4.6 mph - N/A Rain , Thunderstorm Light Thunderstorms and Rain